• En Colombia
  • Lista de países
  • Para 7 días
  • Temperatura del agua
  • El tiempo en el mapa
  • Informadores
  • user-avatar
    Iniciar sesión

    Tiempo cada hora Yulara

    Hoy, 27 Enero, Lunes

    Tiempo Temperatura Precipitaciones Viento Presión Humedad
    00:00 +30°C° 0 mm 6 mps 716 mmHg 17%
    01:00 +29°C° 0 mm 6 mps 716 mmHg 18%
    02:00 +28°C° 0 mm 5 mps 715 mmHg 19%
    03:00 +27°C° 0 mm 5 mps 716 mmHg 19%
    04:00 +27°C° 0 mm 4 mps 716 mmHg 20%
    05:00 +26°C° 0 mm 4 mps 716 mmHg 21%
    06:00 +26°C° 0 mm 4 mps 716 mmHg 22%
    07:00 +28°C° 0 mm 4 mps 716 mmHg 20%
    08:00 +32°C° 0 mm 5 mps 717 mmHg 17%
    09:00 +34°C° 0 mm 6 mps 717 mmHg 15%
    10:00 +36°C° 0 mm 5 mps 717 mmHg 13%
    11:00 +37°C° 0 mm 5 mps 717 mmHg 12%
    12:00 +38°C° 0 mm 4 mps 717 mmHg 11%
    13:00 +40°C° 0 mm 4 mps 716 mmHg 10%
    14:00 +41°C° 0 mm 5 mps 715 mmHg 9%
    15:00 +42°C° 0 mm 5 mps 715 mmHg 8%
    16:00 +42°C° 0 mm 5 mps 715 mmHg 8%
    17:00 +41°C° 0 mm 5 mps 715 mmHg 9%
    18:00 +41°C° 0 mm 6 mps 715 mmHg 9%
    19:00 +39°C° 0 mm 6 mps 715 mmHg 11%
    20:00 +36°C° 0 mm 6 mps 715 mmHg 13%
    21:00 +34°C° 0 mm 5 mps 716 mmHg 15%
    22:00 +34°C° 0 mm 6 mps 716 mmHg 17%
    23:00 +33°C° 0 mm 6 mps 716 mmHg 18%

    Mañana, 28 Enero, Martes

    Tiempo Temperatura Precipitaciones Viento Presión Humedad
    00:00 +32°C° 0 mm 6 mps 716 mmHg 20%
    01:00 +30°C° 0 mm 6 mps 716 mmHg 21%
    02:00 +30°C° 0 mm 6 mps 715 mmHg 22%
    03:00 +29°C° 0 mm 6 mps 715 mmHg 23%
    04:00 +29°C° 0 mm 6 mps 715 mmHg 24%
    05:00 +28°C° 0 mm 6 mps 716 mmHg 25%
    06:00 +27°C° 0 mm 6 mps 716 mmHg 26%
    07:00 +30°C° 0 mm 7 mps 716 mmHg 24%
    08:00 +33°C° 0 mm 8 mps 717 mmHg 22%
    09:00 +35°C° 0 mm 9 mps 717 mmHg 20%
    10:00 +38°C° 0 mm 8 mps 717 mmHg 17%
    11:00 +40°C° 0 mm 8 mps 716 mmHg 15%
    12:00 +41°C° 0 mm 7 mps 716 mmHg 12%
    13:00 +43°C° 0 mm 7 mps 715 mmHg 11%
    14:00 +44°C° 0 mm 7 mps 714 mmHg 10%
    15:00 +44°C° 0 mm 7 mps 714 mmHg 9%
    16:00 +44°C° 0 mm 7 mps 713 mmHg 9%
    17:00 +44°C° 0 mm 7 mps 713 mmHg 9%
    18:00 +43°C° 0 mm 7 mps 713 mmHg 9%
    19:00 +40°C° 0 mm 7 mps 714 mmHg 10%
    20:00 +39°C° 0 mm 6 mps 714 mmHg 12%
    21:00 +36°C° 0 mm 6 mps 714 mmHg 13%
    22:00 +35°C° 0 mm 6 mps 714 mmHg 14%
    23:00 +34°C° 0 mm 5 mps 714 mmHg 15%

    Pasado mañana, 29 Enero, Miércoles

    Tiempo Temperatura Precipitaciones Viento Presión Humedad
    00:00 +33°C° 0 mm 5 mps 714 mmHg 16%
    01:00 +32°C° 0 mm 5 mps 714 mmHg 17%
    02:00 +32°C° 0 mm 5 mps 714 mmHg 18%
    03:00 +30°C° 0 mm 5 mps 714 mmHg 19%
    04:00 +30°C° 0 mm 4 mps 714 mmHg 23%
    05:00 +29°C° 0 mm 4 mps 714 mmHg 27%
    06:00 +29°C° 0 mm 4 mps 714 mmHg 30%
    07:00 +32°C° 0 mm 4 mps 715 mmHg 31%
    08:00 +34°C° 0 mm 5 mps 715 mmHg 31%
    09:00 +38°C° 0 mm 6 mps 716 mmHg 31%
    10:00 +39°C° 0 mm 6 mps 715 mmHg 29%
    11:00 +40°C° 0 mm 7 mps 715 mmHg 26%
    12:00 +41°C° 0 mm 8 mps 714 mmHg 23%
    13:00 +41°C° 0 mm 8 mps 714 mmHg 23%
    14:00 +41°C° 0 mm 7 mps 713 mmHg 23%
    15:00 +41°C° 0 mm 7 mps 712 mmHg 24%
    16:00 +40°C° 0 mm 7 mps 712 mmHg 24%
    17:00 +40°C° 0 mm 8 mps 712 mmHg 24%
    18:00 +40°C° 0 mm 8 mps 712 mmHg 23%
    19:00 +39°C° 0 mm 7 mps 712 mmHg 26%
    20:00 +36°C° 0 mm 6 mps 713 mmHg 29%
    21:00 +35°C° 0 mm 6 mps 713 mmHg 32%
    22:00 +34°C° 0 mm 5 mps 713 mmHg 35%
    23:00 +33°C° 0 mm 4 mps 713 mmHg 37%

    30 Enero, Jueves

    Tiempo Temperatura Precipitaciones Viento Presión Humedad
    00:00 +31°C° 0 mm 3 mps 713 mmHg 40%
    01:00 +31°C° 0 mm 3 mps 712 mmHg 42%
    02:00 +30°C° 0 mm 4 mps 712 mmHg 43%
    03:00 +30°C° 0 mm 4 mps 711 mmHg 45%
    04:00 +29°C° 0 mm 4 mps 711 mmHg 50%
    05:00 +28°C° 0 mm 4 mps 711 mmHg 56%
    06:00 +28°C° 0 mm 4 mps 711 mmHg 62%
    07:00 +29°C° 0 mm 5 mps 711 mmHg 57%
    08:00 +32°C° 0 mm 6 mps 712 mmHg 52%
    09:00 +33°C° 0 mm 7 mps 712 mmHg 47%
    10:00 +34°C° 0 mm 7 mps 711 mmHg 46%
    11:00 +34°C° 0 mm 6 mps 711 mmHg 45%
    12:00 +35°C° 0 mm 6 mps 711 mmHg 44%
    13:00 +35°C° 0.4 mm 5 mps 710 mmHg 45%
    14:00 +35°C° 0.4 mm 5 mps 709 mmHg 47%
    15:00 +35°C° 0.4 mm 5 mps 709 mmHg 48%
    16:00 +34°C° 0.4 mm 5 mps 709 mmHg 49%
    17:00 +34°C° 0.4 mm 5 mps 709 mmHg 50%
    18:00 +34°C° 0.4 mm 5 mps 709 mmHg 52%
    19:00 +33°C° 0.5 mm 4 mps 709 mmHg 56%
    20:00 +32°C° 0.5 mm 4 mps 709 mmHg 61%
    21:00 +30°C° 0.5 mm 3 mps 709 mmHg 65%
    22:00 +30°C° 0 mm 3 mps 709 mmHg 66%
    23:00 +30°C° 0 mm 3 mps 710 mmHg 66%

    31 Enero, Viernes

    Tiempo Temperatura Precipitaciones Viento Presión Humedad
    00:00 +30°C° 0 mm 3 mps 710 mmHg 66%
    01:00 +29°C° 0 mm 2 mps 709 mmHg 68%
    02:00 +29°C° 0 mm 2 mps 709 mmHg 69%
    03:00 +29°C° 0 mm 1 mps 709 mmHg 71%
    04:00 +29°C° 0 mm 1 mps 709 mmHg 72%
    05:00 +28°C° 0 mm 1 mps 709 mmHg 74%
    06:00 +28°C° 0 mm 1 mps 709 mmHg 75%
    07:00 +30°C° 0 mm 1 mps 710 mmHg 66%
    08:00 +32°C° 0 mm 2 mps 710 mmHg 56%
    09:00 +35°C° 0 mm 2 mps 711 mmHg 47%
    10:00 +37°C° 0 mm 2 mps 711 mmHg 39%
    11:00 +39°C° 0 mm 2 mps 711 mmHg 32%
    12:00 +41°C° 0 mm 1 mps 711 mmHg 24%
    13:00 +42°C° 0 mm 2 mps 710 mmHg 22%
    14:00 +43°C° 0 mm 4 mps 710 mmHg 19%
    15:00 +45°C° 0 mm 5 mps 709 mmHg 17%
    16:00 +43°C° 0 mm 5 mps 710 mmHg 18%
    17:00 +43°C° 0 mm 5 mps 710 mmHg 20%
    18:00 +42°C° 0 mm 6 mps 710 mmHg 21%
    19:00 +41°C° 0 mm 5 mps 710 mmHg 24%
    20:00 +38°C° 0 mm 4 mps 711 mmHg 27%
    21:00 +37°C° 0 mm 3 mps 711 mmHg 30%
    22:00 +37°C° 0 mm 3 mps 711 mmHg 33%
    23:00 +36°C° 0 mm 3 mps 711 mmHg 36%

    1 Febrero, Sábado

    Tiempo Temperatura Precipitaciones Viento Presión Humedad
    00:00 +35°C° 0 mm 3 mps 711 mmHg 40%
    01:00 +35°C° 0 mm 3 mps 711 mmHg 43%
    02:00 +34°C° 0 mm 3 mps 711 mmHg 45%
    03:00 +33°C° 0 mm 3 mps 711 mmHg 48%
    04:00 +33°C° 0 mm 3 mps 711 mmHg 50%
    05:00 +31°C° 0 mm 3 mps 712 mmHg 53%
    06:00 +31°C° 0 mm 3 mps 712 mmHg 55%
    07:00 +33°C° 0 mm 4 mps 713 mmHg 52%
    08:00 +34°C° 0 mm 6 mps 714 mmHg 49%
    09:00 +35°C° 0 mm 7 mps 714 mmHg 46%
    10:00 +38°C° 0 mm 7 mps 714 mmHg 42%
    11:00 +39°C° 0 mm 7 mps 714 mmHg 38%
    12:00 +40°C° 0 mm 7 mps 714 mmHg 34%
    13:00 +40°C° 0.1 mm 8 mps 713 mmHg 34%
    14:00 +40°C° 0.1 mm 8 mps 713 mmHg 34%
    15:00 +40°C° 0.1 mm 9 mps 712 mmHg 34%
    16:00 +38°C° 0.1 mm 9 mps 713 mmHg 40%
    17:00 +36°C° 0.1 mm 10 mps 713 mmHg 45%
    18:00 +34°C° 0.1 mm 10 mps 714 mmHg 51%
    19:00 +32°C° 0.1 mm 10 mps 714 mmHg 53%
    20:00 +31°C° 0.1 mm 9 mps 715 mmHg 55%
    21:00 +29°C° 0.1 mm 9 mps 715 mmHg 56%
    22:00 +28°C° 0 mm 8 mps 715 mmHg 58%
    23:00 +28°C° 0 mm 8 mps 716 mmHg 59%
    Mostrar más